TimePST,TemperatureF,Dew PointF,Humidity,Sea Level PressureIn,VisibilityMPH,Wind Direction,Wind SpeedMPH,Gust SpeedMPH,PrecipitationIn,Events,Conditions,WindDirDegrees,DateUTC
12:53 AM,39.0,37.9,96,30.39,10.0,SW,4.6,-,N/A,,Overcast,220,2014-01-01 08:53:00
1:53 AM,41.0,39.0,93,30.39,10.0,WSW,5.8,-,N/A,,Overcast,240,2014-01-01 09:53:00
2:07 AM,41.0,37.9,89,30.39,10.0,WSW,4.6,-,N/A,,Overcast,240,2014-01-01 10:07:00
2:53 AM,39.9,37.0,89,30.41,10.0,WSW,3.5,-,N/A,,Overcast,240,2014-01-01 10:53:00
3:17 AM,39.9,37.0,89,30.40,10.0,WSW,4.6,-,N/A,,Overcast,240,2014-01-01 11:17:00
3:26 AM,39.9,37.0,89,30.40,10.0,SW,3.5,-,N/A,,Overcast,220,2014-01-01 11:26:00
3:53 AM,39.9,37.9,93,30.39,10.0,Calm,Calm,-,N/A,,Overcast,0,2014-01-01 11:53:00
4:38 AM,39.9,37.9,93,30.38,10.0,Calm,Calm,-,N/A,,Overcast,0,2014-01-01 12:38:00
4:53 AM,41.0,37.9,89,30.39,10.0,Calm,Calm,-,N/A,,Overcast,0,2014-01-01 12:53:00
5:03 AM,41.0,37.9,89,30.38,10.0,Calm,Calm,-,N/A,,Overcast,0,2014-01-01 13:03:00
5:53 AM,41.0,39.0,93,30.39,10.0,Calm,Calm,-,N/A,,Overcast,0,2014-01-01 13:53:00
6:53 AM,39.0,37.0,93,30.38,10.0,Calm,Calm,-,N/A,,Overcast,0,2014-01-01 14:53:00
7:01 AM,37.9,36.0,93,30.38,10.0,Calm,Calm,-,N/A,,Overcast,0,2014-01-01 15:01:00
7:12 AM,37.9,36.0,93,30.38,10.0,Calm,Calm,-,N/A,,Overcast,0,2014-01-01 15:12:00
7:40 AM,37.0,36.0,96,30.37,1.8,Calm,Calm,-,N/A,,Overcast,0,2014-01-01 15:40:00
7:45 AM,37.0,36.0,96,30.38,0.8,Calm,Calm,-,N/A,,Overcast,0,2014-01-01 15:45:00
7:53 AM,37.9,37.0,97,30.39,0.5,Calm,Calm,-,N/A,Fog,Fog,0,2014-01-01 15:53:00
7:59 AM,37.9,37.0,97,30.38,2.0,Calm,Calm,-,N/A,,Overcast,0,2014-01-01 15:59:00
8:06 AM,37.9,37.0,97,30.38,10.0,Calm,Calm,-,N/A,,Overcast,0,2014-01-01 16:06:00
8:10 AM,37.9,36.0,93,30.38,10.0,Calm,Calm,-,N/A,,Overcast,0,2014-01-01 16:10:00
8:20 AM,37.0,35.1,93,30.38,10.0,ESE,3.5,-,N/A,,Overcast,120,2014-01-01 16:20:00
8:28 AM,37.0,36.0,96,30.38,6.0,Calm,Calm,-,N/A,,Overcast,0,2014-01-01 16:28:00
8:53 AM,39.9,37.9,93,30.40,10.0,SSW,3.5,-,N/A,,Overcast,210,2014-01-01 16:53:00
9:53 AM,42.1,39.9,92,30.39,8.0,East,4.6,-,N/A,,Overcast,100,2014-01-01 17:53:00
10:53 AM,44.1,39.9,85,30.39,10.0,Calm,Calm,-,N/A,,Overcast,0,2014-01-01 18:53:00
11:32 AM,44.1,39.9,85,30.37,10.0,ESE,4.6,-,N/A,,Overcast,120,2014-01-01 19:32:00
11:53 AM,44.1,39.9,85,30.37,10.0,East,4.6,-,N/A,,Overcast,90,2014-01-01 19:53:00
12:23 PM,43.0,39.9,89,30.36,10.0,East,4.6,-,N/A,,Overcast,90,2014-01-01 20:23:00
12:53 PM,44.1,39.9,85,30.36,10.0,Calm,Calm,-,N/A,,Overcast,0,2014-01-01 20:53:00
1:53 PM,44.1,39.9,85,30.36,10.0,East,3.5,-,N/A,,Overcast,80,2014-01-01 21:53:00
2:53 PM,44.1,41.0,89,30.36,10.0,Calm,Calm,-,0.00,Rain,Light Rain,0,2014-01-01 22:53:00
3:49 PM,42.8,41.0,93,30.35,8.0,ESE,3.5,-,0.01,Rain,Light Rain,120,2014-01-01 23:49:00
3:53 PM,43.0,41.0,93,30.36,8.0,ESE,4.6,-,0.02,Rain,Light Rain,120,2014-01-01 23:53:00
4:36 PM,43.0,41.0,93,30.34,8.0,SE,4.6,-,0.01,Rain,Light Rain,130,2014-01-02 00:36:00
4:53 PM,43.0,39.9,89,30.35,7.0,ESE,4.6,-,0.01,Rain,Light Rain,120,2014-01-02 00:53:00
5:33 PM,43.0,39.9,89,30.33,10.0,ESE,4.6,-,0.00,,Overcast,120,2014-01-02 01:33:00
5:53 PM,43.0,39.9,89,30.33,10.0,ESE,5.8,-,0.00,Rain,Light Rain,120,2014-01-02 01:53:00
6:53 PM,43.0,39.9,89,30.32,9.0,ESE,5.8,-,0.01,,Overcast,110,2014-01-02 02:53:00
7:30 PM,43.0,41.0,93,30.30,7.0,ESE,5.8,-,N/A,,Overcast,110,2014-01-02 03:30:00
7:53 PM,42.1,41.0,96,30.30,7.0,ESE,4.6,-,N/A,,Overcast,120,2014-01-02 03:53:00
8:53 PM,43.0,39.9,89,30.29,10.0,East,3.5,-,0.00,,Overcast,90,2014-01-02 04:53:00
9:45 PM,42.1,39.9,92,30.27,10.0,SE,3.5,-,N/A,,Overcast,140,2014-01-02 05:45:00
9:53 PM,42.1,39.9,92,30.28,10.0,South,3.5,-,N/A,,Overcast,170,2014-01-02 05:53:00
10:53 PM,42.1,41.0,96,30.27,10.0,Calm,Calm,-,N/A,,Overcast,0,2014-01-02 06:53:00
11:53 PM,42.1,39.9,92,30.26,9.0,SSE,4.6,-,N/A,,Overcast,160,2014-01-02 07:53:00